When you browse on this site, cookies collect data to enhance your experience and personalize the content and advertising you see.
Visit our Privacy Policy to learn more. By continuing to use the site, you agree to this use of cookies and data.
  • In United Kingdom
  • List of Countries
  • For 7 days
  • Water Temperature
  • Weather Map
  • Weather Widgets
  • user-avatar
    Login

    Hourly Weather Oruro

    Today, 19 January, Sunday

    Time Temperature Precipitation Wind Pressure Humidity
    00:00 +10°C° 0 mm 4 mps 478 mmHg 71%
    01:00 +8°C° 0 mm 4 mps 478 mmHg 73%
    02:00 +9°C° 0 mm 3 mps 477 mmHg 76%
    03:00 +9°C° 0 mm 3 mps 477 mmHg 77%
    04:00 +8°C° 0 mm 3 mps 477 mmHg 78%
    05:00 +8°C° 0 mm 3 mps 477 mmHg 79%
    06:00 +9°C° 0 mm 3 mps 477 mmHg 74%
    07:00 +9°C° 0 mm 3 mps 478 mmHg 69%
    08:00 +10°C° 0 mm 3 mps 479 mmHg 64%
    09:00 +12°C° 0.1 mm 3 mps 480 mmHg 59%
    10:00 +13°C° 0.1 mm 3 mps 480 mmHg 53%
    11:00 +14°C° 0.1 mm 3 mps 481 mmHg 47%
    12:00 +16°C° 0.2 mm 3 mps 481 mmHg 45%
    13:00 +17°C° 0.2 mm 3 mps 481 mmHg 42%
    14:00 +17°C° 0.2 mm 3 mps 480 mmHg 40%
    15:00 +17°C° 0.3 mm 4 mps 480 mmHg 43%
    16:00 +17°C° 0.3 mm 4 mps 479 mmHg 46%
    17:00 +15°C° 0.3 mm 4 mps 479 mmHg 49%
    18:00 +14°C° 0.7 mm 4 mps 479 mmHg 55%
    19:00 +13°C° 0.7 mm 5 mps 478 mmHg 61%
    20:00 +12°C° 0.7 mm 5 mps 478 mmHg 66%
    21:00 +11°C° 0.1 mm 4 mps 478 mmHg 69%
    22:00 +11°C° 0.1 mm 4 mps 478 mmHg 71%
    23:00 +10°C° 0.1 mm 3 mps 478 mmHg 74%

    Tomorrow, 20 January, Monday

    Time Temperature Precipitation Wind Pressure Humidity
    00:00 +10°C° 0 mm 3 mps 478 mmHg 75%
    01:00 +9°C° 0 mm 2 mps 477 mmHg 77%
    02:00 +10°C° 0 mm 1 mps 477 mmHg 78%
    03:00 +10°C° 0 mm 1 mps 477 mmHg 79%
    04:00 +9°C° 0 mm 1 mps 477 mmHg 79%
    05:00 +9°C° 0 mm 1 mps 476 mmHg 80%
    06:00 +10°C° 0.1 mm 1 mps 477 mmHg 75%
    07:00 +11°C° 0.1 mm 1 mps 478 mmHg 70%
    08:00 +11°C° 0.1 mm 1 mps 479 mmHg 65%
    09:00 +12°C° 0.2 mm 1 mps 479 mmHg 60%
    10:00 +14°C° 0.2 mm 1 mps 480 mmHg 55%
    11:00 +15°C° 0.2 mm 2 mps 480 mmHg 50%
    12:00 +15°C° 1.2 mm 2 mps 480 mmHg 50%
    13:00 +16°C° 1.2 mm 2 mps 480 mmHg 49%
    14:00 +16°C° 1.2 mm 2 mps 479 mmHg 48%
    15:00 +16°C° 1.5 mm 2 mps 479 mmHg 51%
    16:00 +15°C° 1.5 mm 2 mps 478 mmHg 53%
    17:00 +14°C° 1.5 mm 3 mps 477 mmHg 56%
    18:00 +13°C° 1.5 mm 4 mps 477 mmHg 63%
    19:00 +11°C° 1.5 mm 4 mps 476 mmHg 70%
    20:00 +9°C° 1.5 mm 5 mps 476 mmHg 78%
    21:00 +10°C° 0.3 mm 4 mps 477 mmHg 76%
    22:00 +10°C° 0.3 mm 3 mps 477 mmHg 75%
    23:00 +10°C° 0.3 mm 3 mps 478 mmHg 74%

    Day after tomorrow, 21 January, Tuesday

    Time Temperature Precipitation Wind Pressure Humidity
    00:00 +10°C° 0.2 mm 2 mps 477 mmHg 75%
    01:00 +11°C° 0.2 mm 1 mps 477 mmHg 76%
    02:00 +11°C° 0.2 mm 1 mps 477 mmHg 77%
    03:00 +10°C° 0.1 mm 1 mps 477 mmHg 77%
    04:00 +10°C° 0.1 mm 1 mps 477 mmHg 77%
    05:00 +10°C° 0.1 mm 1 mps 476 mmHg 77%
    06:00 +10°C° 0.1 mm 1 mps 477 mmHg 75%
    07:00 +11°C° 0.1 mm 1 mps 477 mmHg 73%
    08:00 +11°C° 0.1 mm 1 mps 478 mmHg 71%
    09:00 +12°C° 0.5 mm 1 mps 478 mmHg 65%
    10:00 +14°C° 0.5 mm 1 mps 479 mmHg 60%
    11:00 +15°C° 0.5 mm 1 mps 479 mmHg 54%
    12:00 +16°C° 0.6 mm 1 mps 479 mmHg 50%
    13:00 +17°C° 0.6 mm 2 mps 479 mmHg 47%
    14:00 +18°C° 0.6 mm 3 mps 479 mmHg 44%
    15:00 +18°C° 0.3 mm 3 mps 479 mmHg 44%
    16:00 +18°C° 0.3 mm 4 mps 478 mmHg 45%
    17:00 +16°C° 0.3 mm 5 mps 478 mmHg 46%
    18:00 +15°C° 0.4 mm 5 mps 477 mmHg 52%
    19:00 +14°C° 0.4 mm 5 mps 477 mmHg 58%
    20:00 +12°C° 0.4 mm 5 mps 477 mmHg 65%
    21:00 +12°C° 0.3 mm 4 mps 477 mmHg 68%
    22:00 +11°C° 0.3 mm 3 mps 477 mmHg 70%
    23:00 +11°C° 0.3 mm 3 mps 477 mmHg 73%

    22 January, Wednesday

    Time Temperature Precipitation Wind Pressure Humidity
    00:00 +10°C° 0.2 mm 3 mps 477 mmHg 74%
    01:00 +10°C° 0.2 mm 3 mps 477 mmHg 74%
    02:00 +10°C° 0.2 mm 4 mps 476 mmHg 74%
    03:00 +10°C° 0.1 mm 4 mps 476 mmHg 74%
    04:00 +9°C° 0.1 mm 3 mps 476 mmHg 74%
    05:00 +9°C° 0.1 mm 3 mps 476 mmHg 75%
    06:00 +9°C° 0 mm 3 mps 476 mmHg 72%
    07:00 +10°C° 0 mm 3 mps 477 mmHg 69%
    08:00 +10°C° 0 mm 3 mps 477 mmHg 67%
    09:00 +11°C° 0 mm 4 mps 478 mmHg 61%
    10:00 +13°C° 0 mm 4 mps 479 mmHg 55%
    11:00 +14°C° 0 mm 5 mps 480 mmHg 50%
    12:00 +15°C° 0.3 mm 4 mps 479 mmHg 49%
    13:00 +15°C° 0.3 mm 4 mps 479 mmHg 49%
    14:00 +15°C° 0.3 mm 4 mps 478 mmHg 48%
    15:00 +15°C° 0.3 mm 4 mps 478 mmHg 48%
    16:00 +15°C° 0.3 mm 4 mps 478 mmHg 48%
    17:00 +15°C° 0.3 mm 4 mps 478 mmHg 47%
    18:00 +14°C° 0.3 mm 4 mps 477 mmHg 53%
    19:00 +13°C° 0.3 mm 5 mps 477 mmHg 59%
    20:00 +11°C° 0.3 mm 6 mps 477 mmHg 66%
    21:00 +10°C° 0.3 mm 5 mps 477 mmHg 68%
    22:00 +11°C° 0.3 mm 4 mps 477 mmHg 70%
    23:00 +10°C° 0.3 mm 3 mps 477 mmHg 72%

    23 January, Thursday

    Time Temperature Precipitation Wind Pressure Humidity
    00:00 +10°C° 0.1 mm 4 mps 477 mmHg 72%
    01:00 +8°C° 0.1 mm 4 mps 476 mmHg 72%
    02:00 +8°C° 0.1 mm 5 mps 476 mmHg 72%
    03:00 +7°C° 0 mm 4 mps 476 mmHg 64%
    04:00 +7°C° 0 mm 4 mps 475 mmHg 55%
    05:00 +8°C° 0 mm 3 mps 475 mmHg 47%
    06:00 +8°C° 0 mm 3 mps 476 mmHg 43%
    07:00 +8°C° 0 mm 3 mps 476 mmHg 39%
    08:00 +9°C° 0 mm 3 mps 477 mmHg 35%
    09:00 +10°C° 0 mm 4 mps 478 mmHg 32%
    10:00 +12°C° 0 mm 4 mps 479 mmHg 28%
    11:00 +14°C° 0 mm 5 mps 480 mmHg 25%
    12:00 +15°C° 0 mm 5 mps 480 mmHg 26%
    13:00 +16°C° 0 mm 5 mps 480 mmHg 28%
    14:00 +17°C° 0 mm 6 mps 480 mmHg 29%
    15:00 +17°C° 0 mm 6 mps 479 mmHg 31%
    16:00 +17°C° 0 mm 7 mps 479 mmHg 34%
    17:00 +16°C° 0 mm 7 mps 478 mmHg 36%
    18:00 +15°C° 0 mm 7 mps 477 mmHg 42%
    19:00 +13°C° 0 mm 6 mps 477 mmHg 48%
    20:00 +11°C° 0 mm 6 mps 476 mmHg 54%
    21:00 +10°C° 0 mm 5 mps 477 mmHg 57%
    22:00 +11°C° 0 mm 4 mps 477 mmHg 60%
    23:00 +10°C° 0 mm 3 mps 477 mmHg 64%

    24 January, Friday

    Time Temperature Precipitation Wind Pressure Humidity
    00:00 +10°C° 0 mm 3 mps 477 mmHg 67%
    01:00 +9°C° 0 mm 2 mps 476 mmHg 71%
    02:00 +9°C° 0 mm 2 mps 476 mmHg 74%
    03:00 +8°C° 0 mm 2 mps 476 mmHg 76%
    04:00 +8°C° 0 mm 2 mps 475 mmHg 78%
    05:00 +7°C° 0 mm 2 mps 475 mmHg 80%
    06:00 +8°C° 0 mm 2 mps 476 mmHg 76%
    07:00 +9°C° 0 mm 2 mps 477 mmHg 72%
    08:00 +9°C° 0 mm 2 mps 477 mmHg 68%
    09:00 +12°C° 0 mm 2 mps 478 mmHg 56%
    10:00 +14°C° 0 mm 2 mps 479 mmHg 45%
    11:00 +15°C° 0 mm 2 mps 480 mmHg 33%
    12:00 +16°C° 0 mm 2 mps 481 mmHg 29%
    13:00 +18°C° 0 mm 3 mps 481 mmHg 25%
    14:00 +19°C° 0 mm 4 mps 481 mmHg 22%
    15:00 +19°C° 0 mm 5 mps 480 mmHg 25%
    16:00 +19°C° 0 mm 6 mps 480 mmHg 28%
    17:00 +18°C° 0 mm 7 mps 479 mmHg 31%
    18:00 +16°C° 0 mm 7 mps 478 mmHg 38%
    19:00 +14°C° 0 mm 7 mps 478 mmHg 45%
    20:00 +11°C° 0 mm 7 mps 477 mmHg 52%
    21:00 +11°C° 0 mm 6 mps 477 mmHg 56%
    22:00 +10°C° 0 mm 6 mps 477 mmHg 60%
    23:00 +9°C° 0 mm 5 mps 477 mmHg 64%
    Show more